Tracking 23757 objects as of 26-Oct-2021
HD Live streaming from Space Station
objects crossing your sky now

LEMUR 2 SCHMIDTFALL

Track LEMUR 2 SCHMIDTFALL now!
10-day predictions
LEMUR 2 SCHMIDTFALL is classified as:


NORAD ID: 46315
Int'l Code: 2020-061AV
Perigee: 533.5 km
Apogee: 535.0 km
Inclination: 97.5 °
Period: 95.2 minutes
Semi major axis: 6905 km
RCS: Unknown
Launch date: September 3, 2020
Source: United States (US)
Launch site: FRENCH GUIANA (FRGUI)
aabbcc
Your satellite tracking list
Your tracking list is empty




NASA's NSSDC Master Catalog

Two Line Element Set (TLE):
1 46315U 20061AV  21299.45129935  .00004468  00000-0  25687-3 0  9992
2 46315  97.4782  10.8164 0001044 219.1799 140.9356 15.12986273 63185
Source of the keplerian elements: AFSPC